Mount Washington, New Hampshire, United States (03589)
Lat: 44.69N, Lon: 71.39W
Wx Zone: NHZ002
Local Info
Past Weather Observations for Today

NOTE: This archive is for the closest National Weather Service station to Mount Washington. Information may differ from the station used for current weather conditions.

Click here for Long-term Archive

Time Weather Temperature Dewpoint Humidity Pressure Winds Precip Visibility
20:52
Overcast
57°F / 14°C 52°F / 11°C 82% 30.18 in
(1022 mb)
Calm - 10SM
20:20
Overcast
55°F / 13°C 54°F / 12°C 94% 30.18 in
(1022 mb)
Calm - 10SM
19:52
Overcast
57°F / 14°C 54°F / 12°C 88% 30.18 in
(1022 mb)
Calm - 10SM
19:50
Overcast
57°F / 14°C 54°F / 12°C 88% 30.18 in
(1022 mb)
Calm - 10SM
18:52
Overcast
57°F / 14°C 54°F / 12°C 88% 30.18 in
(1022 mb)
Calm - 10SM
18:04
Overcast
57°F / 14°C 54°F / 12°C 88% 30.15 in
(1021 mb)
Calm - 10SM
17:52
Overcast
59°F / 15°C 54°F / 12°C 82% 30.15 in
(1021 mb)
SSE 4.6 mph
(SSE 7 kph)
- 10SM
17:39
Overcast
59°F / 15°C 54°F / 12°C 82% 30.15 in
(1021 mb)
SSE 5.8 mph
(SSE 9 kph)
- 10SM
16:52
Overcast
61°F / 16°C 54°F / 12°C 77% 30.12 in
(1020 mb)
SSE 3.5 mph
(SSE 6 kph)
- 10SM
15:52
Overcast
61°F / 16°C 52°F / 11°C 72% 30.12 in
(1020 mb)
Calm - 10SM
14:52
Overcast
61°F / 16°C 54°F / 12°C 77% 30.12 in
(1020 mb)
Calm - 10SM
13:52
Overcast
61°F / 16°C 52°F / 11°C 72% 30.12 in
(1020 mb)
Calm - 10SM
12:52
Overcast
61°F / 16°C 52°F / 11°C 72% 30.12 in
(1020 mb)
S 4.6 mph
(S 7 kph)
- 10SM
12:03
Overcast
63°F / 17°C 52°F / 11°C 68% 30.15 in
(1021 mb)
Variable 3.5 mph
(Variable 6 kph)
- 10SM
11:52
Overcast
63°F / 17°C 52°F / 11°C 68% 30.15 in
(1021 mb)
Calm - 10SM
11:10
Overcast
61°F / 16°C 52°F / 11°C 72% 30.15 in
(1021 mb)
E 5.8 mph
(E 9 kph)
- 10SM
10:52
Overcast
61°F / 16°C 52°F / 11°C 72% 30.15 in
(1021 mb)
Variable 5.8 mph
(Variable 9 kph)
- 10SM
09:52
Overcast
59°F / 15°C 52°F / 11°C 77% 30.15 in
(1021 mb)
Variable 4.6 mph
(Variable 7 kph)
- 10SM
09:40
Overcast
57°F / 14°C 52°F / 11°C 82% 30.15 in
(1021 mb)
Variable 3.5 mph
(Variable 6 kph)
- 10SM
08:52
Overcast
55°F / 13°C 54°F / 12°C 94% 30.15 in
(1021 mb)
Calm - 10SM
08:49
Overcast
55°F / 13°C 54°F / 12°C 94% 30.15 in
(1021 mb)
Calm - 10SM
07:52
Overcast
55°F / 13°C 52°F / 11°C 88% 30.15 in
(1021 mb)
S 3.5 mph
(S 6 kph)
- 10SM
06:52
Overcast
54°F / 12°C 52°F / 11°C 94% 30.12 in
(1020 mb)
Calm - 9SM
05:52
Overcast
54°F / 12°C 52°F / 11°C 94% 30.12 in
(1020 mb)
Calm - 8SM
05:02
Overcast
54°F / 12°C 52°F / 11°C 94% 30.09 in
(1019 mb)
Calm - 9SM
04:52
Overcast
54°F / 12°C 52°F / 11°C 94% 30.09 in
(1019 mb)
Calm - 9SM
04:09
Overcast
54°F / 12°C 52°F / 11°C 94% 30.09 in
(1019 mb)
Calm - 8SM
03:52
Overcast
54°F / 12°C 52°F / 11°C 94% 30.09 in
(1019 mb)
Calm - 8SM
02:52
Overcast
54°F / 12°C 52°F / 11°C 94% 30.09 in
(1019 mb)
Calm - 9SM
01:52
Overcast
52°F / 11°C 52°F / 11°C 100% 30.09 in
(1019 mb)
NE 3.5 mph
(NE 6 kph)
- 8SM
01:49
Overcast
52°F / 11°C 52°F / 11°C 100% 30.09 in
(1019 mb)
ENE 4.6 mph
(ENE 7 kph)
- 7SM
01:40
Overcast
Fog And Mist
52°F / 11°C 52°F / 11°C 100% 30.09 in
(1019 mb)
Calm - 5SM
01:28
Overcast
Fog And Mist
52°F / 11°C 52°F / 11°C 100% 30.09 in
(1019 mb)
Calm - 6SM
00:52
Overcast
52°F / 11°C 52°F / 11°C 100% 30.09 in
(1019 mb)
Calm - 9SM
00:40
Overcast
52°F / 11°C 52°F / 11°C 100% 30.09 in
(1019 mb)
Calm - 9SM
Time Weather Temperature Dewpoint Humidity Pressure Winds Precip Visibility


Weather for websites

WeatherForYou.com, LLC is not responsible for any damages or problems caused by this service. Current weather conditions are obtained from the closest station including government and personal stations which may have varying degrees of accuracy. Weather forecasts are derived from the NOAA NDFD. Like all things, this site belongs to Jesus Christ... He just trusts me to maintain it. If you have any questions or comments email webmaster@weatherforyou.com

Copyright © 2014, WeatherForYou.com LLC. All rights reserved.